Date,TemperatureHighF,TemperatureAvgF,TemperatureLowF,DewpointHighF,DewpointAvgF,DewpointLowF,HumidityHigh,HumidityAvg,HumidityLow,PressureMaxIn,PressureMinIn,WindSpeedMaxMPH,WindSpeedAvgMPH,GustSpeedMaxMPH,PrecipitationSumIn
2013-2-1,16.6,3.0,-14.0,9.5,-3.4,-19.1,84,74,62,29.80,29.47,15,5,15,0.00
2013-2-2,26.7,15.2,2.4,24.2,10.3,-1.4,91,81,65,29.66,29.46,23,4,23,0.00
2013-2-3,24.6,14.4,6.2,15.1,8.5,2.1,86,78,62,29.67,29.38,20,3,20,0.00
2013-2-4,22.2,12.9,-1.2,17.6,6.9,-4.9,85,77,59,29.58,29.25,20,7,20,0.00
2013-2-5,31.4,24.4,15.0,25.8,19.5,12.0,89,82,71,29.57,29.23,90,5,90,0.00
2013-2-6,42.9,27.5,13.2,31.5,22.6,10.5,92,82,63,29.55,29.35,32,9,32,0.00
2013-2-7,25.6,20.6,15.9,22.2,17.4,13.4,93,88,77,29.80,29.54,16,6,16,0.00
2013-2-8,27.8,21.1,15.9,22.1,17.7,12.8,91,86,78,29.81,29.52,36,14,36,0.00
2013-2-9,36.4,29.2,23.5,29.9,25.7,20.7,94,87,76,29.52,29.26,34,15,34,0.00
2013-2-10,30.3,25.1,20.1,28.7,23.1,18.4,94,92,84,29.26,28.91,46,2,46,0.00
2013-2-11,23.1,17.9,13.6,18.5,14.6,10.7,93,87,77,29.59,29.21,47,16,47,0.00
2013-2-12,28.0,20.2,12.3,19.3,15.1,9.4,89,81,64,29.55,29.39,22,8,22,0.00
2013-2-13,44.2,30.3,19.5,30.0,24.1,16.4,90,78,56,29.39,29.15,37,9,37,0.00
2013-2-14,27.3,18.4,2.6,24.8,13.5,-1.4,93,82,59,29.80,29.31,26,9,26,0.00
2013-2-15,23.7,11.1,0.8,13.8,5.3,-2.7,87,78,59,29.87,29.77,21,4,21,0.00
2013-2-16,25.5,15.5,7.8,16.1,10.3,4.2,87,80,66,29.77,29.50,16,4,16,0.00
2013-2-17,36.4,26.3,15.7,28.1,21.5,13.2,91,82,65,29.51,29.06,26,11,26,0.00
2013-2-18,31.2,14.9,2.1,28.1,10.8,-2.1,91,83,73,29.58,29.11,48,22,48,0.00
2013-2-19,2.1,-7.3,-14.5,-1.6,-12.9,-19.1,84,76,66,29.91,29.58,39,14,39,0.00
2013-2-20,15.7,-0.8,-15.8,4.7,-7.2,-20.4,83,74,58,29.92,29.77,27,10,27,0.00
2013-2-21,20.6,9.4,-0.3,9.5,3.3,-4.7,86,76,61,29.81,29.56,26,11,26,0.00
2013-2-22,26.7,15.9,7.6,16.8,9.7,3.0,88,77,57,29.57,29.44,23,8,23,0.00
2013-2-23,23.7,10.2,-3.7,14.7,4.5,-7.8,87,78,61,29.44,29.35,14,4,14,0.00
2013-2-24,41.5,19.3,4.9,22.5,11.6,1.1,87,73,45,29.60,29.42,12,2,12,0.00
2013-2-25,27.3,17.4,6.4,18.3,12.2,2.6,89,80,67,29.63,29.52,9,1,9,0.00
2013-2-26,29.1,19.0,12.1,20.8,15.1,9.4,91,85,70,29.55,29.48,16,1,16,0.00
2013-2-27,27.6,20.0,11.6,20.0,15.0,8.9,90,81,61,29.68,29.54,33,12,33,0.00
2013-2-28,27.1,19.7,14.8,18.7,14.9,12.4,90,82,69,29.79,29.67,22,9,22,0.00